Temperature
19 19 19 19 19 19 19 19 19 19 19 19 19 19 19 19 19 19 19 19 19 19 19 19 19 19 19 18 18 18 18 18 18 18 18 18 18 18 18 18 18 18 18
20 19 19 19 19 19 19 19 19 19 19 19 19 19 19 19 19 19 19 19 19 19 19 19 19 18 18 18 18 18 18 18 18 18 18 18 18 18 18 18 18 18 18
20 19 19 19 19 19 19 19 19 19 19 19 19 19 19 19 19 19 19 19 19 19 19 19 19 18 18 18 18 18 18 18 18 18 18 18 18 18 18 18 18 18 17
20 20 19 19 19 19 19 19 19 19 19 19 19 19 19 19 19 19 19 19 19 19 19 18 18 18 18 18 18 18 18 18 18 18 18 18 18 18 18 18 17 17 17
20 20 20 19 19 19 19 19 19 19 19 19 19 19 19 19 19 19 18 19 18 18 18 18 18 18 18 18 18 18 18 18 18 18 18 18 18 18 17 17 17 17 17
20 20 20 19 19 19 19 19 19 19 19 19 19 19 19 19 19 19 19 19 19 18 18 18 18 18 18 18 18 18 18 18 18 18 18 18 18 18 18 18 17 17 17
20 20 20 19 19 19 19 19 19 19 19 19 19 19 19 19 19 18 18 18 18 18 18 18 18 18 18 18 18 18 18 18 18 18 18 18 18 18 18 18 18 17 17
20 20 20 19 19 19 19 19 19 19 19 19 19 19 19 19 19 19 19 18 18 18 18 18 18 18 18 18 18 18 18 18 18 18 18 18 18 18 18 18 17 17 17
20 20 20 19 19 19 19 19 19 19 19 19 19 19 19 19 19 19 19 18 18 18 18 18 18 18 18 18 18 18 18 18 18 18 18 18 18 18 18 17 17 17 17
20 20 20 19 19 19 19 19 19 19 19 19 19 19 19 19 19 19 19 18 18 18 18 18 18 18 18 18 18 18 18 18 18 18 18 18 18 18 18 17 17 17 17
20 20 20 19 19 19 19 19 19 19 19 19 19 19 19 19 19 18 18 18 18 18 18 18 18 18 18 18 18 18 18 18 18 18 18 18 18 18 18 17 17 17 17
20 20 20 20 19 19 19 19 19 19 19 19 19 19 19 19 18 18 18 18 18 18 18 18 18 18 18 18 18 18 18 18 18 18 18 18 18 18 18 17 17 17 17
20 20 20 20 20 19 19 19 19 19 19 19 19 19 19 19 19 18 18 18 18 18 18 18 18 18 18 18 18 18 18 18 18 18 18 18 18 18 17 17 17 17 17
20 20 20 20 20 20 19 19 19 19 19 19 19 19 19 19 19 18 18 18 18 18 18 18 18 18 18 18 18 18 18 18 18 18 18 18 18 18 17 17 17 17 17
20 20 20 20 20 20 19 19 19 19 19 19 19 19 19 19 19 18 18 18 18 18 18 18 18 18 18 18 18 18 18 18 18 18 18 18 18 18 17 17 17 17 17
20 20 20 20 20 20 19 19 19 19 19 19 19 19 18 18 18 18 18 18 18 18 18 18 18 18 18 18 18 18 18 18 18 18 18 18 18 18 18 17 17 17 17
20 20 20 20 20 19 19 19 19 19 19 19 19 19 18 18 18 18 18 18 18 18 18 18 18 18 18 18 18 18 18 18 18 18 18 18 18 18 17 17 17 17 17
21 20 20 20 20 20 19 19 19 19 19 19 19 19 19 18 18 18 18 18 18 18 18 18 18 18 18 18 18 18 18 18 18 18 18 18 18 17 17 17 17 17 17
21 20 20 20 20 20 19 19 19 19 19 19 19 19 19 19 18 18 18 18 18 18 19 18 18 18 18 18 18 18 18 18 18 18 18 18 18 17 17 17 17 17 17
21 21 20 20 20 20 19 19 19 19 19 19 19 19 19 19 18 18 18 18 18 18 18 18 18 18 18 18 18 18 18 18 18 18 18 18 18 17 17 17 17 17 17
21 21 20 20 20 20 20 19 19 19 19 19 19 19 19 19 19 19 19 19 18 18 18 18 18 18 18 18 18 18 18 18 18 18 18 18 18 17 17 17 17 17 17
21 21 20 20 20 20 20 20 19 19 19 19 19 19 19 19 19 19 19 19 19 19 18 18 18 18 18 18 18 18 18 18 18 18 18 18 18 18 17 17 17 17 17
21 21 21 21 20 20 20 20 19 19 19 19 19 19 19 19 19 18 18 19 19 19 19 19 18 18 18 18 18 18 18 18 18 18 18 18 18 18 18 17 17 17 17
22 21 21 21 21 20 20 20 20 20 19 19 19 19 19 19 19 19 19 19 18 18 18 18 18 18 18 18 18 18 18 18 18 17 18 18 18 18 17 17 17 17 17
22 22 21 21 21 20 20 20 20 20 19 19 19 19 19 18 18 18 18 18 18 18 18 18 18 18 18 18 18 18 18 18 18 17 17 17 17 17 17 17 17 17 17
22 22 21 21 21 20 20 20 20 20 19 19 19 19 19 19 19 18 18 18 18 18 18 18 18 18 18 18 18 18 18 18 18 17 17 17 17 17 17 17 17 17 17
Wind_Speed
1 0 2 4 5 6 7 7 7 7 8 8 8 7 8 10 11 13 14 14 14 14 13 14 15 15 16 16 17 18 18 17 17 17 16 15 14 13 13 12 11 11 13
1 1 3 5 6 7 8 9 8 8 8 8 8 8 9 11 12 13 13 14 14 13 13 15 15 15 16 16 17 17 17 16 17 16 15 14 14 13 12 12 12 11 13
3 2 4 5 6 7 8 8 9 8 8 9 9 9 11 12 13 14 14 14 14 13 15 16 16 16 16 16 16 17 17 16 16 16 14 11 12 12 11 11 12 12 13
3 3 4 6 6 7 8 8 8 8 9 9 9 10 11 12 13 14 15 15 15 15 16 17 17 16 16 16 16 16 16 16 16 15 10 10 10 12 11 11 12 12 12
3 3 4 6 7 7 8 8 8 8 8 9 9 10 11 12 13 15 15 15 15 15 15 16 16 16 16 15 15 15 16 16 15 12 9 9 9 12 11 11 11 11 11
3 3 4 7 7 8 8 8 8 8 8 8 9 10 11 13 14 14 14 15 15 15 15 15 15 15 14 14 14 14 14 14 12 10 9 9 9 11 12 11 11 11 11
3 2 4 6 7 7 7 8 8 8 8 9 9 10 11 12 13 14 14 14 15 15 15 15 15 14 14 14 13 13 13 13 11 10 9 8 9 11 11 11 11 11 10
3 2 3 6 7 7 7 7 7 7 9 10 10 10 11 12 13 13 14 14 14 14 14 14 14 13 13 12 12 11 11 11 10 9 8 8 9 10 10 10 10 10 10
3 2 2 3 4 6 6 6 7 7 8 9 10 10 12 13 13 13 13 13 13 13 13 12 12 12 11 10 10 9 10 10 9 8 8 7 9 10 9 10 10 10 9
3 2 2 2 3 4 4 5 6 7 8 8 9 10 12 12 12 11 11 11 11 11 11 11 10 9 9 9 8 8 9 9 8 7 6 7 9 9 9 9 9 9 9
1 1 1 2 3 3 3 4 4 5 6 6 7 10 9 8 8 8 8 9 9 9 9 9 8 8 7 6 6 7 7 7 7 6 6 7 8 8 8 8 8 8 8
2 1 1 1 1 2 2 3 4 4 5 5 6 6 6 6 6 6 7 7 8 8 7 7 6 5 5 4 4 5 5 6 5 4 6 8 8 8 8 8 8 8 8
3 2 2 2 1 1 2 2 3 3 4 4 5 5 5 5 4 4 4 4 5 5 5 5 4 3 4 4 3 3 4 4 4 4 5 7 8 9 9 9 8 8 8
3 2 2 2 2 1 1 2 2 2 2 2 3 3 4 3 3 2 2 3 3 3 3 2 2 2 3 3 3 3 3 3 3 3 4 6 8 8 9 9 9 9 8
3 3 3 3 2 2 2 1 2 2 2 2 2 2 3 2 2 2 2 2 2 2 2 2 1 1 1 1 2 2 2 3 3 3 3 6 7 8 8 9 9 9 9
4 4 3 3 3 3 2 2 1 1 2 2 1 1 2 2 2 1 1 1 1 1 2 1 1 1 0 1 1 2 2 2 2 2 3 5 7 7 8 8 9 9 8
5 4 4 4 3 3 3 2 2 2 2 2 2 1 2 3 2 1 1 0 0 1 1 2 1 1 1 1 1 1 1 2 2 2 2 3 4 6 7 8 8 8 8
5 4 4 4 4 3 3 2 2 2 2 1 2 2 2 2 3 2 1 0 1 2 2 1 1 1 1 1 1 0 1 1 1 2 2 2 3 3 5 7 8 9 9
6 5 5 4 4 4 3 2 2 2 1 1 2 2 2 2 3 2 1 1 1 1 1 1 1 1 1 1 1 0 1 1 2 2 2 3 3 3 4 6 7 8 9
5 5 5 4 4 4 3 2 2 2 1 1 1 1 2 2 2 2 1 0 1 1 1 1 1 1 1 1 1 0 1 1 2 2 3 2 3 4 4 5 5 6 7
5 5 5 5 4 4 3 2 2 1 0 0 0 1 1 1 2 2 1 0 1 1 1 2 2 2 1 1 1 1 1 1 1 2 2 2 3 3 4 4 5 4 5
6 6 6 5 5 4 3 3 2 2 1 0 1 1 0 1 2 2 2 1 1 2 2 2 2 1 1 1 2 1 2 2 2 1 1 2 3 2 3 4 4 4 5
6 7 7 6 5 4 4 3 3 3 2 2 1 1 1 0 1 1 1 1 1 2 2 2 2 2 2 1 1 2 1 1 1 2 1 1 1 1 2 3 4 5 5
8 6 5 6 5 4 4 4 4 3 2 1 0 0 1 1 1 1 1 1 1 1 2 2 2 2 3 2 1 1 1 2 1 1 2 1 1 1 2 2 3 3 4
7 6 5 5 5 4 4 5 4 3 2 1 1 1 1 2 2 1 1 1 1 1 1 1 2 2 2 2 2 1 1 1 1 1 2 2 2 1 1 2 3 3 3
6 6 6 6 5 5 5 5 5 5 3 2 1 1 0 1 1 1 1 1 1 1 1 1 1 2 2 2 2 2 2 2 2 2 2 2 2 2 2 1 2 2 3
Wind_Direction
291 325 103 81 81 83 86 87 86 90 92 97 105 114 129 135 134 133 133 136 137 139 140 146 143 142 140 141 142 142 142 143 143 142 141 143 143 142 141 140 134 133 133
156 137 119 95 87 85 88 91 86 88 89 95 97 103 117 128 129 127 126 127 131 134 135 137 139 142 139 140 140 141 141 142 141 141 141 143 144 141 139 139 137 136 136
109 125 127 104 95 91 86 87 86 86 89 91 95 100 112 119 123 123 122 121 123 126 129 134 134 134 133 135 137 139 140 141 141 140 141 140 140 139 140 140 138 138 138
113 111 120 111 104 95 88 84 83 85 88 90 95 102 110 117 120 120 120 119 116 116 120 123 125 127 127 130 133 137 141 141 140 137 134 135 139 142 143 142 141 141 138
95 103 118 111 106 96 88 84 83 86 88 92 98 103 109 115 118 118 117 118 116 115 115 117 121 123 123 124 128 134 138 138 137 133 127 130 136 145 147 147 147 146 141
95 112 127 114 109 101 91 87 81 81 86 96 101 104 108 113 115 116 117 119 118 115 113 113 120 119 122 120 121 126 132 132 130 128 127 133 140 150 151 152 152 150 148
105 102 126 120 114 105 97 90 86 81 87 97 101 108 113 117 118 118 117 116 116 115 114 113 117 119 118 119 121 122 129 131 129 132 136 142 149 155 154 156 158 153 155
107 74 107 124 118 108 100 93 88 87 91 94 99 108 117 119 119 117 116 116 115 115 115 116 118 118 119 119 118 121 130 135 136 140 141 148 156 155 153 154 157 159 160
80 65 58 105 117 114 107 98 91 88 87 89 94 104 112 115 115 116 115 116 116 116 117 120 120 122 123 124 124 128 136 141 137 144 150 157 163 159 159 159 161 163 161
69 67 55 66 82 91 102 102 97 90 87 87 93 102 107 110 111 112 112 116 118 118 120 123 122 122 122 125 129 133 136 135 134 142 150 162 163 161 158 157 155 155 155
94 39 63 60 70 86 93 94 88 88 83 81 84 96 96 92 96 103 111 115 115 117 120 122 120 116 113 113 120 129 132 128 138 146 160 169 171 172 167 164 159 159 159
191 204 141 109 81 78 91 77 71 74 70 67 67 72 78 85 93 99 104 109 114 117 117 114 113 110 103 96 109 121 125 134 138 152 167 177 181 181 177 173 169 169 169
176 163 152 144 106 84 69 78 72 70 66 65 68 71 75 78 82 80 76 81 89 99 94 92 86 87 97 96 95 104 126 140 152 166 177 185 188 187 184 182 180 181 181
145 161 151 147 132 116 103 95 88 80 72 69 69 74 85 87 85 82 81 77 79 82 82 77 81 79 94 106 116 126 133 143 155 169 181 195 196 196 195 193 191 192 195
165 173 163 160 156 146 137 137 115 103 106 101 83 84 104 104 96 85 71 74 82 89 100 100 96 89 98 113 133 147 152 147 162 181 193 203 203 205 205 203 199 200 204
178 181 167 162 167 153 149 151 142 146 145 131 118 119 124 124 111 95 76 62 71 97 99 105 126 130 129 119 134 137 150 150 166 184 200 209 210 211 212 215 211 212 215
178 173 167 167 156 153 160 164 145 160 159 144 172 168 148 142 138 125 108 75 318 95 96 92 76 77 85 98 103 135 156 167 176 192 206 211 217 223 222 225 226 222 224
167 167 176 172 154 156 157 151 132 148 154 170 176 181 178 160 160 149 143 211 167 117 124 126 99 79 71 107 115 155 183 180 195 195 206 219 221 231 231 232 232 232 231
172 168 168 162 155 154 146 137 129 120 135 169 171 183 191 171 165 157 153 176 140 121 138 150 117 131 125 127 145 174 210 208 219 212 217 229 230 233 234 235 235 237 237
167 163 164 159 152 141 124 106 88 71 61 107 156 197 190 185 166 148 151 156 128 115 121 132 130 108 133 147 102 21 299 252 229 226 228 225 227 233 239 240 239 245 243
163 164 171 165 161 144 137 140 137 162 254 15 294 238 206 189 170 155 179 156 138 152 172 152 145 120 87 119 97 9 339 296 234 241 231 224 234 241 245 245 243 243 248
181 182 180 178 171 165 161 158 151 144 135 200 338 9 163 168 170 169 172 169 159 156 152 153 154 142 108 111 135 108 352 350 350 283 230 227 243 239 245 251 248 240 239
184 188 189 185 177 172 154 125 100 79 54 40 13 347 332 173 169 165 158 153 154 163 175 182 167 162 175 125 133 145 151 251 316 343 343 284 253 227 248 259 255 248 239
193 184 179 173 169 164 151 143 139 148 168 203 229 319 355 27 81 133 131 135 133 137 162 187 173 165 163 176 141 141 170 169 181 327 347 356 332 288 281 274 271 263 246
186 177 175 166 166 164 157 155 151 154 174 150 91 60 17 12 25 60 91 103 110 120 130 141 133 150 166 172 172 160 161 136 172 189 286 324 347 324 292 280 277 279 267
176 170 170 168 175 169 166 166 164 169 162 145 136 129 357 353 1 15 74 87 84 99 119 131 126 133 152 153 160 160 166 177 193 187 228 274 301 308 306 290 278 276 286
Height
1493 1492 1491 1490 1488 1487 1486 1485 1484 1484 1483 1482 1482 1481 1481 1482 1483 1485 1487 1489 1491 1493 1495 1496 1500 1504 1507 1510 1513 1516 1518 1521 1524 1526 1529 1532 1534 1536 1537 1539 1540 1541 1542
1494 1493 1493 1492 1490 1489 1487 1487 1486 1486 1485 1484 1483 1482 1481 1482 1485 1487 1489 1491 1492 1494 1494 1496 1501 1505 1508 1510 1513 1516 1519 1522 1525 1527 1530 1533 1535 1536 1538 1540 1541 1542 1543
1495 1494 1494 1493 1492 1492 1490 1490 1489 1488 1487 1486 1485 1483 1483 1485 1487 1489 1491 1493 1494 1494 1494 1498 1503 1506 1509 1511 1514 1517 1520 1523 1526 1528 1531 1534 1536 1537 1539 1540 1542 1543 1544
1497 1496 1496 1495 1494 1494 1493 1492 1491 1490 1489 1488 1487 1486 1486 1488 1490 1492 1494 1496 1497 1497 1499 1502 1505 1508 1511 1513 1516 1518 1521 1524 1527 1529 1532 1534 1536 1538 1540 1541 1543 1544 1545
1498 1498 1498 1497 1496 1496 1495 1494 1493 1492 1490 1489 1488 1488 1488 1490 1492 1494 1497 1499 1500 1502 1503 1505 1508 1511 1514 1516 1518 1520 1523 1525 1528 1531 1533 1535 1537 1539 1540 1542 1543 1544 1545
1500 1500 1500 1500 1499 1499 1498 1497 1495 1494 1492 1491 1490 1490 1491 1492 1495 1497 1499 1502 1504 1506 1507 1509 1511 1514 1516 1519 1521 1522 1525 1527 1530 1532 1534 1536 1538 1539 1541 1542 1543 1544 1546
1502 1502 1502 1502 1502 1501 1500 1499 1498 1496 1494 1493 1492 1492 1493 1495 1498 1500 1503 1505 1507 1509 1511 1512 1515 1517 1520 1522 1524 1525 1527 1530 1532 1534 1535 1537 1539 1540 1541 1542 1543 1545 1546
1504 1504 1505 1504 1504 1504 1503 1502 1501 1499 1498 1496 1495 1494 1495 1498 1501 1504 1506 1509 1511 1513 1515 1516 1519 1521 1523 1525 1527 1529 1530 1532 1534 1535 1537 1538 1539 1541 1542 1543 1544 1545 1546
1506 1506 1507 1507 1507 1506 1506 1505 1503 1502 1501 1500 1498 1496 1498 1501 1504 1507 1510 1512 1514 1516 1518 1520 1522 1524 1526 1528 1530 1531 1533 1534 1536 1537 1538 1539 1540 1542 1542 1543 1544 1546 1547
1508 1508 1509 1509 1509 1509 1508 1508 1507 1506 1505 1503 1502 1501 1503 1506 1509 1511 1514 1516 1518 1520 1522 1523 1525 1527 1529 1531 1532 1533 1534 1536 1537 1538 1539 1540 1541 1542 1543 1544 1545 1546 1547
1509 1510 1510 1511 1511 1511 1511 1511 1510 1510 1509 1508 1507 1507 1509 1511 1513 1515 1517 1519 1521 1523 1525 1526 1528 1529 1531 1533 1534 1535 1536 1537 1538 1539 1540 1541 1542 1543 1544 1544 1545 1546 1548
1510 1510 1511 1512 1513 1513 1513 1513 1513 1513 1513 1513 1513 1513 1514 1515 1517 1519 1521 1522 1524 1525 1527 1529 1530 1531 1533 1534 1535 1536 1537 1538 1539 1540 1541 1542 1542 1543 1544 1545 1546 1547 1548
1511 1512 1513 1514 1515 1515 1516 1516 1516 1517 1517 1517 1517 1518 1518 1519 1520 1522 1523 1525 1526 1528 1529 1530 1532 1533 1534 1535 1536 1537 1538 1539 1539 1540 1541 1542 1543 1543 1544 1545 1546 1547 1548
1513 1514 1515 1516 1517 1518 1518 1519 1519 1519 1520 1520 1521 1521 1522 1522 1523 1525 1525 1527 1528 1529 1530 1532 1533 1534 1535 1536 1536 1537 1538 1539 1540 1541 1542 1542 1543 1543 1544 1545 1546 1546 1547
1515 1516 1517 1518 1519 1520 1520 1521 1522 1522 1522 1523 1524 1524 1525 1525 1526 1527 1528 1529 1530 1531 1532 1533 1534 1535 1536 1536 1537 1538 1539 1540 1540 1541 1542 1542 1543 1543 1544 1544 1545 1546 1547
1516 1517 1518 1519 1520 1521 1522 1523 1524 1524 1525 1525 1526 1527 1527 1528 1528 1529 1530 1530 1531 1532 1533 1533 1534 1535 1536 1536 1537 1538 1539 1540 1540 1541 1542 1542 1543 1543 1544 1544 1545 1545 1546
1517 1519 1520 1521 1522 1523 1523 1524 1525 1526 1527 1527 1528 1528 1529 1529 1530 1530 1531 1531 1532 1533 1533 1534 1535 1535 1536 1537 1538 1538 1539 1540 1540 1541 1542 1542 1542 1543 1543 1544 1544 1545 1545
1518 1519 1520 1521 1522 1524 1525 1526 1527 1528 1528 1529 1529 1530 1530 1531 1531 1531 1532 1532 1532 1533 1533 1534 1535 1535 1536 1537 1537 1538 1539 1539 1540 1540 1541 1541 1542 1543 1543 1543 1543 1544 1544
1518 1520 1521 1522 1523 1524 1526 1527 1528 1529 1530 1530 1530 1531 1531 1532 1532 1532 1532 1533 1533 1533 1533 1534 1535 1535 1536 1536 1537 1538 1538 1539 1539 1540 1540 1541 1541 1542 1542 1542 1542 1543 1543
1519 1520 1521 1522 1524 1525 1526 1528 1529 1530 1530 1531 1531 1532 1532 1532 1532 1533 1533 1533 1533 1533 1533 1534 1535 1535 1536 1536 1537 1537 1538 1538 1538 1539 1539 1540 1540 1541 1541 1541 1541 1541 1542
1519 1520 1521 1523 1524 1525 1526 1528 1529 1530 1531 1531 1532 1532 1532 1533 1533 1533 1533 1533 1533 1533 1533 1534 1534 1535 1535 1536 1537 1537 1537 1537 1537 1538 1538 1538 1539 1539 1540 1540 1540 1540 1540
1518 1519 1521 1522 1524 1525 1527 1528 1529 1530 1531 1532 1532 1533 1533 1533 1533 1533 1533 1533 1533 1532 1532 1533 1533 1534 1535 1535 1536 1536 1537 1538 1537 1537 1537 1537 1537 1538 1538 1538 1538 1539 1539
1517 1518 1520 1522 1524 1525 1527 1528 1529 1530 1531 1532 1532 1532 1533 1533 1533 1533 1533 1533 1532 1532 1532 1533 1533 1533 1534 1535 1536 1537 1536 1536 1536 1537 1536 1536 1536 1537 1537 1537 1537 1537 1537
1515 1518 1520 1522 1523 1525 1526 1527 1528 1529 1530 1531 1532 1532 1532 1533 1533 1533 1533 1533 1532 1532 1532 1532 1533 1533 1534 1534 1535 1535 1536 1536 1536 1535 1536 1536 1535 1535 1535 1535 1535 1535 1535
1514 1517 1519 1521 1523 1524 1526 1527 1528 1529 1530 1531 1532 1532 1532 1532 1533 1533 1533 1533 1532 1532 1532 1532 1533 1533 1533 1533 1534 1534 1534 1535 1535 1535 1534 1534 1534 1534 1534 1534 1533 1533 1533
1513 1515 1518 1519 1521 1523 1525 1526 1527 1528 1529 1530 1531 1532 1532 1532 1532 1533 1533 1532 1532 1532 1532 1532 1532 1532 1532 1533 1533 1533 1533 1533 1533 1533 1533 1532 1532 1532 1532 1532 1531 1531 1531